Home > Weather > U.S.A. > Oklahoma City > Past weeks

Flag for U.S.A. Weather past 2 weeks in Oklahoma City, Oklahoma, U.S.A.

36 °F


Feels Like: 36 °F
Forecast: 30 / 48 °F
Wind: No wind

Location: Will Rogers World Airport

Current Time: Dec 2, 2015 at 1:59:26 AM

Latest Report: Dec 2, 2015 at 12:52 AM

Visibility: 10 mi

Pressure: 30.05 "Hg

Humidity: 85%

Dew point: 32 °F

Location of Oklahoma CityLocation

Historic Weather in Oklahoma City — Graph


Oklahoma City temperature yesterday

Maximum temperature yesterday: 51 °F (at 2:52 PM)
Minimum temperature yesterday: 27 °F (at 5:52 AM)
Average temperature yesterday: 37 °F

Past Weeks' High & Low Weather Summary

High70 °F (Nov 17, 12:52 AM)100% (Nov 17, 2:52 AM)30.43 "Hg (Nov 17, 2:52 AM)
Low23 °F (Nov 22, 3:52 AM)23% (Nov 23, 12:52 PM)29.36 "Hg (Nov 17, 2:52 PM)
Average45 °F76%30.06 "Hg
* Reported Nov 16 11:52 PM — Dec 1 11:52 PM, Oklahoma City, Weather by CustomWeather, © 2015

Note: Actual official high and low records may vary slightly from our data, if they occured in-between our weather recording intervals... More about our weather records


Oklahoma City weather history for previous 24 hours

Time TempWeatherWind HumidityBarometerVisibility
11:52 PM
Tue, Dec 1
34 °FClear.6 mph92%30.05 "Hg10 mi
10:52 PM32 °FClear.6 mph100%30.03 "Hg8 mi
8:52 PM39 °FClear.No wind89%30.03 "Hg10 mi
7:52 PM39 °FClear.5 mph89%30.03 "Hg10 mi
6:52 PM41 °FClear.3 mph80%30.01 "Hg10 mi
5:52 PM44 °FClear.5 mph76%29.99 "Hg10 mi
4:52 PM47 °FPassing clouds.7 mph69%29.96 "Hg10 mi
3:52 PM51 °FPassing clouds.9 mph61%29.96 "Hg10 mi
2:52 PM51 °FPassing clouds.9 mph61%29.97 "Hg10 mi
1:52 PM50 °FPassing clouds.15 mph61%29.98 "Hg10 mi
12:52 PM49 °FScattered clouds.17 mph64%30.00 "Hg10 mi
11:52 AM46 °FScattered clouds.9 mph68%30.03 "Hg10 mi
10:52 AM42 °FScattered clouds.10 mph85%30.06 "Hg10 mi
9:52 AM35 °FPartly sunny.7 mph96%30.07 "Hg10 mi
8:52 AM31 °FPartly sunny.5 mph100%30.07 "Hg8 mi
7:52 AM29 °FPartly sunny.6 mph100%30.08 "Hg10 mi
6:52 AM27 °FPassing clouds.7 mph96%30.06 "Hg10 mi
5:52 AM27 °FPassing clouds.5 mph96%30.06 "Hg10 mi
4:52 AM30 °FPassing clouds.5 mph92%30.06 "Hg10 mi
3:52 AM28 °FPassing clouds.6 mph96%30.07 "Hg10 mi
2:52 AM28 °FPassing clouds.6 mph96%30.08 "Hg10 mi
1:52 AM28 °FPassing clouds.6 mph96%30.08 "Hg10 mi
Weather by CustomWeather, © 2015

See weather overviewHow to use our weather pages